Time,TemperatureF,DewpointF,PressureIn,WindDirection,WindDirectionDegrees,WindSpeedMPH,WindSpeedGustMPH,Humidity,HourlyPrecipIn,Conditions,Clouds,dailyrainin,SoftwareType,DateUTC
2013-03-07 00:02:00,15.8,10.2,30.40,West,276,0.0,0.0,78,0.00,,,0.00,VWS V14.01,2013-03-07 06:02:00,
2013-03-07 00:07:00,15.6,10.0,30.41,West,276,0.0,0.0,78,0.00,,,0.00,VWS V14.01,2013-03-07 06:07:00,
2013-03-07 00:12:00,15.3,9.7,30.41,West,276,0.0,0.0,78,0.00,,,0.00,VWS V14.01,2013-03-07 06:12:00,
2013-03-07 00:17:00,15.2,9.6,30.41,West,276,0.0,0.0,78,0.00,,,0.00,VWS V14.01,2013-03-07 06:17:00,
2013-03-07 00:22:00,15.0,9.4,30.42,West,276,0.0,0.0,78,0.00,,,0.00,VWS V14.01,2013-03-07 06:22:00,
2013-03-07 00:27:00,15.0,9.7,30.42,West,276,0.0,0.0,79,0.00,,,0.00,VWS V14.01,2013-03-07 06:27:00,
2013-03-07 00:32:00,15.0,9.7,30.42,West,276,0.0,0.0,79,0.00,,,0.00,VWS V14.01,2013-03-07 06:32:00,
2013-03-07 00:37:00,15.0,9.7,30.42,West,276,0.0,0.0,79,0.00,,,0.00,VWS V14.01,2013-03-07 06:37:00,
2013-03-07 00:43:00,15.0,9.7,30.41,West,276,0.0,0.0,79,0.00,,,0.00,VWS V14.01,2013-03-07 06:43:00,
2013-03-07 00:48:00,15.1,9.8,30.41,West,276,0.0,0.0,79,0.00,,,0.00,VWS V14.01,2013-03-07 06:48:00,
2013-03-07 00:53:00,14.8,9.2,30.41,West,276,0.0,0.0,78,0.00,,,0.00,VWS V14.01,2013-03-07 06:53:00,
2013-03-07 00:58:00,14.4,8.8,30.41,West,276,0.0,0.0,78,0.00,,,0.00,VWS V14.01,2013-03-07 06:58:00,
2013-03-07 01:03:00,14.1,8.5,30.41,West,276,0.0,0.0,78,0.00,,,0.00,VWS V14.01,2013-03-07 07:03:00,
2013-03-07 01:08:00,14.0,8.7,30.41,West,276,0.0,0.0,79,0.00,,,0.00,VWS V14.01,2013-03-07 07:08:00,
2013-03-07 01:13:00,13.9,8.3,30.41,West,276,0.0,0.0,78,0.00,,,0.00,VWS V14.01,2013-03-07 07:13:00,
2013-03-07 01:18:00,13.8,8.2,30.40,West,276,0.0,0.0,78,0.00,,,0.00,VWS V14.01,2013-03-07 07:18:00,
2013-03-07 01:23:00,13.6,7.7,30.40,West,276,0.0,0.0,77,0.00,,,0.00,VWS V14.01,2013-03-07 07:23:00,
2013-03-07 01:28:00,13.3,7.7,30.40,West,276,0.0,0.0,78,0.00,,,0.00,VWS V14.01,2013-03-07 07:28:00,
2013-03-07 01:33:00,13.2,7.6,30.41,West,276,0.0,0.0,78,0.00,,,0.00,VWS V14.01,2013-03-07 07:33:00,
2013-03-07 01:39:00,13.0,7.4,30.41,West,276,0.0,0.0,78,0.00,,,0.00,VWS V14.01,2013-03-07 07:39:00,
2013-03-07 01:44:00,13.0,7.4,30.41,West,276,0.0,0.0,78,0.00,,,0.00,VWS V14.01,2013-03-07 07:44:00,
2013-03-07 01:50:00,13.1,7.5,30.41,West,276,0.0,0.0,78,0.00,,,0.00,VWS V14.01,2013-03-07 07:50:00,
2013-03-07 01:55:00,13.2,7.9,30.41,West,276,0.0,0.0,79,0.00,,,0.00,VWS V14.01,2013-03-07 07:55:00,
2013-03-07 02:00:00,13.3,8.0,30.41,West,276,0.0,0.0,79,0.00,,,0.00,VWS V14.01,2013-03-07 08:00:00,
2013-03-07 02:05:00,13.5,8.2,30.41,West,276,0.0,0.0,79,0.00,,,0.00,VWS V14.01,2013-03-07 08:05:00,
2013-03-07 02:10:00,13.6,8.0,30.41,West,276,0.0,0.0,78,0.00,,,0.00,VWS V14.01,2013-03-07 08:10:00,
2013-03-07 02:15:00,13.7,7.8,30.41,West,276,0.0,0.0,77,0.00,,,0.00,VWS V14.01,2013-03-07 08:15:00,
2013-03-07 02:20:00,13.6,7.7,30.41,West,276,0.0,0.0,77,0.00,,,0.00,VWS V14.01,2013-03-07 08:20:00,
2013-03-07 02:25:00,13.5,7.4,30.41,West,276,0.0,0.0,76,0.00,,,0.00,VWS V14.01,2013-03-07 08:25:00,
2013-03-07 02:30:00,13.4,7.6,30.41,West,276,0.0,0.0,77,0.00,,,0.00,VWS V14.01,2013-03-07 08:30:00,
2013-03-07 02:35:00,13.4,7.3,30.41,West,276,0.0,0.0,76,0.00,,,0.00,VWS V14.01,2013-03-07 08:35:00,
2013-03-07 02:40:00,12.8,6.7,30.41,West,276,0.0,0.0,76,0.00,,,0.00,VWS V14.01,2013-03-07 08:40:00,
2013-03-07 02:45:00,12.6,7.1,30.41,West,276,0.0,0.0,78,0.00,,,0.00,VWS V14.01,2013-03-07 08:45:00,
2013-03-07 02:50:00,12.5,7.0,30.41,West,276,0.0,0.0,78,0.00,,,0.00,VWS V14.01,2013-03-07 08:50:00,
2013-03-07 02:55:00,12.2,6.4,30.41,West,276,0.0,0.0,77,0.00,,,0.00,VWS V14.01,2013-03-07 08:55:00,
2013-03-07 03:00:00,12.1,6.6,30.41,West,276,0.0,0.0,78,0.00,,,0.00,VWS V14.01,2013-03-07 09:00:00,
2013-03-07 03:06:00,11.8,6.0,30.41,West,276,0.0,0.0,77,0.00,,,0.00,VWS V14.01,2013-03-07 09:06:00,
2013-03-07 03:11:00,11.7,5.6,30.41,West,276,0.0,0.0,76,0.00,,,0.00,VWS V14.01,2013-03-07 09:11:00,
2013-03-07 03:16:00,11.6,5.8,30.41,West,276,0.0,0.0,77,0.00,,,0.00,VWS V14.01,2013-03-07 09:16:00,
2013-03-07 03:21:00,11.6,5.8,30.41,West,276,0.0,0.0,77,0.00,,,0.00,VWS V14.01,2013-03-07 09:21:00,
2013-03-07 03:26:00,11.4,6.2,30.41,West,276,0.0,0.0,79,0.00,,,0.00,VWS V14.01,2013-03-07 09:26:00,
2013-03-07 03:31:00,11.3,5.8,30.41,West,276,0.0,0.0,78,0.00,,,0.00,VWS V14.01,2013-03-07 09:31:00,
2013-03-07 03:36:00,11.0,5.5,30.41,West,276,0.0,0.0,78,0.00,,,0.00,VWS V14.01,2013-03-07 09:36:00,
2013-03-07 03:41:00,11.0,5.8,30.40,West,276,0.0,0.0,79,0.00,,,0.00,VWS V14.01,2013-03-07 09:41:00,
2013-03-07 03:46:00,10.9,5.4,30.41,West,276,0.0,0.0,78,0.00,,,0.00,VWS V14.01,2013-03-07 09:46:00,
2013-03-07 03:51:00,10.8,5.6,30.41,West,276,0.0,0.0,79,0.00,,,0.00,VWS V14.01,2013-03-07 09:51:00,
2013-03-07 03:56:00,10.9,5.7,30.40,West,276,0.0,0.0,79,0.00,,,0.00,VWS V14.01,2013-03-07 09:56:00,
2013-03-07 04:01:00,11.1,5.6,30.40,West,276,0.0,0.0,78,0.00,,,0.00,VWS V14.01,2013-03-07 10:01:00,
2013-03-07 04:06:00,10.8,5.0,30.40,West,276,0.0,0.0,77,0.00,,,0.00,VWS V14.01,2013-03-07 10:06:00,
2013-03-07 04:11:00,10.8,5.0,30.40,West,276,0.0,0.0,77,0.00,,,0.00,VWS V14.01,2013-03-07 10:11:00,
2013-03-07 04:16:00,10.7,4.6,30.40,West,276,0.0,0.0,76,0.00,,,0.00,VWS V14.01,2013-03-07 10:16:00,
2013-03-07 04:21:00,10.7,4.9,30.41,West,276,0.0,0.0,77,0.00,,,0.00,VWS V14.01,2013-03-07 10:21:00,
2013-03-07 04:27:00,10.8,5.0,30.41,West,276,0.0,0.0,77,0.00,,,0.00,VWS V14.01,2013-03-07 10:27:00,
2013-03-07 04:32:00,10.9,5.1,30.41,West,276,0.0,0.0,77,0.00,,,0.00,VWS V14.01,2013-03-07 10:32:00,
2013-03-07 04:37:00,11.0,5.2,30.41,West,276,0.0,0.0,77,0.00,,,0.00,VWS V14.01,2013-03-07 10:37:00,
2013-03-07 04:42:00,11.0,4.9,30.41,West,276,0.0,0.0,76,0.00,,,0.00,VWS V14.01,2013-03-07 10:42:00,
2013-03-07 04:47:00,11.0,4.9,30.41,West,276,0.0,0.0,76,0.00,,,0.00,VWS V14.01,2013-03-07 10:47:00,
2013-03-07 04:52:00,10.9,4.8,30.41,West,276,0.0,0.0,76,0.00,,,0.00,VWS V14.01,2013-03-07 10:52:00,
2013-03-07 04:57:00,11.0,4.9,30.41,West,276,0.0,0.0,76,0.00,,,0.00,VWS V14.01,2013-03-07 10:57:00,
2013-03-07 05:02:00,10.9,4.8,30.41,West,276,0.0,0.0,76,0.00,,,0.00,VWS V14.01,2013-03-07 11:02:00,
2013-03-07 05:08:00,10.9,4.8,30.42,West,276,0.0,0.0,76,0.00,,,0.00,VWS V14.01,2013-03-07 11:08:00,
2013-03-07 05:13:00,10.9,4.8,30.42,West,276,0.0,0.0,76,0.00,,,0.00,VWS V14.01,2013-03-07 11:13:00,
2013-03-07 05:18:00,11.0,4.9,30.41,West,276,0.0,0.0,76,0.00,,,0.00,VWS V14.01,2013-03-07 11:18:00,
2013-03-07 05:23:00,11.0,4.6,30.42,West,276,0.0,0.0,75,0.00,,,0.00,VWS V14.01,2013-03-07 11:23:00,
2013-03-07 05:28:00,11.0,4.3,30.42,West,276,0.0,0.0,74,0.00,,,0.00,VWS V14.01,2013-03-07 11:28:00,
2013-03-07 05:33:00,11.0,4.3,30.41,West,276,0.0,0.0,74,0.00,,,0.00,VWS V14.01,2013-03-07 11:33:00,
2013-03-07 05:38:00,10.8,4.2,30.41,West,276,0.0,0.0,74,0.00,,,0.00,VWS V14.01,2013-03-07 11:38:00,
2013-03-07 05:43:00,10.4,4.1,30.41,West,276,0.0,0.0,75,0.00,,,0.00,VWS V14.01,2013-03-07 11:43:00,
2013-03-07 05:48:00,10.2,3.9,30.41,West,276,0.0,0.0,75,0.00,,,0.00,VWS V14.01,2013-03-07 11:48:00,
2013-03-07 05:53:00,10.1,3.8,30.41,West,276,0.0,0.0,75,0.00,,,0.00,VWS V14.01,2013-03-07 11:53:00,
2013-03-07 05:58:00,10.0,3.7,30.41,West,276,0.0,0.0,75,0.00,,,0.00,VWS V14.01,2013-03-07 11:58:00,
2013-03-07 06:03:00,9.9,3.6,30.41,West,276,0.0,0.0,75,0.00,,,0.00,VWS V14.01,2013-03-07 12:03:00,
2013-03-07 06:08:00,9.8,3.5,30.41,West,276,0.0,0.0,75,0.00,,,0.00,VWS V14.01,2013-03-07 12:08:00,
2013-03-07 06:13:00,9.8,3.8,30.42,West,276,0.0,0.0,76,0.00,,,0.00,VWS V14.01,2013-03-07 12:13:00,
2013-03-07 06:18:00,9.9,3.9,30.42,West,276,0.0,0.0,76,0.00,,,0.00,VWS V14.01,2013-03-07 12:18:00,
2013-03-07 06:24:00,10.0,4.0,30.41,West,276,0.0,0.0,76,0.00,,,0.00,VWS V14.01,2013-03-07 12:24:00,
2013-03-07 06:29:00,9.9,3.9,30.42,West,276,0.0,0.0,76,0.00,,,0.00,VWS V14.01,2013-03-07 12:29:00,
2013-03-07 06:34:00,9.9,3.9,30.42,West,276,0.0,0.0,76,0.00,,,0.00,VWS V14.01,2013-03-07 12:34:00,
2013-03-07 06:39:00,10.0,4.0,30.42,West,276,0.0,0.0,76,0.00,,,0.00,VWS V14.01,2013-03-07 12:39:00,
2013-03-07 06:44:00,10.0,4.0,30.42,West,276,0.0,0.0,76,0.00,,,0.00,VWS V14.01,2013-03-07 12:44:00,
2013-03-07 06:49:00,9.8,4.3,30.42,West,276,0.0,0.0,78,0.00,,,0.00,VWS V14.01,2013-03-07 12:49:00,
2013-03-07 06:54:00,9.8,4.3,30.42,West,276,0.0,0.0,78,0.00,,,0.00,VWS V14.01,2013-03-07 12:54:00,
2013-03-07 06:59:00,9.9,4.2,30.42,West,276,0.0,0.0,77,0.00,,,0.00,VWS V14.01,2013-03-07 12:59:00,
2013-03-07 07:04:00,9.7,3.4,30.42,West,276,0.0,0.0,75,0.00,,,0.00,VWS V14.01,2013-03-07 13:04:00,
2013-03-07 07:09:00,9.5,3.8,30.42,West,276,0.0,0.0,77,0.00,,,0.00,VWS V14.01,2013-03-07 13:09:00,
2013-03-07 07:14:00,9.5,4.0,30.42,West,276,0.0,0.0,78,0.00,,,0.00,VWS V14.01,2013-03-07 13:14:00,
2013-03-07 07:19:00,9.5,4.0,30.41,West,276,0.0,0.0,78,0.00,,,0.00,VWS V14.01,2013-03-07 13:19:00,
2013-03-07 07:24:00,9.5,4.0,30.41,West,276,0.0,0.0,78,0.00,,,0.00,VWS V14.01,2013-03-07 13:24:00,
2013-03-07 07:29:00,9.8,4.3,30.41,West,276,0.0,0.0,78,0.00,,,0.00,VWS V14.01,2013-03-07 13:29:00,
2013-03-07 07:34:00,10.0,4.5,30.41,West,276,0.0,0.0,78,0.00,,,0.00,VWS V14.01,2013-03-07 13:34:00,
2013-03-07 07:40:00,10.4,4.9,30.40,West,276,0.0,0.0,78,0.00,,,0.00,VWS V14.01,2013-03-07 13:40:00,
2013-03-07 07:45:00,10.8,5.6,30.40,West,276,0.0,0.0,79,0.00,,,0.00,VWS V14.01,2013-03-07 13:45:00,
2013-03-07 07:50:00,11.2,6.0,30.40,West,276,0.0,0.0,79,0.00,,,0.00,VWS V14.01,2013-03-07 13:50:00,
2013-03-07 07:55:00,11.7,7.3,30.40,West,275,0.0,0.0,82,0.00,,,0.00,VWS V14.01,2013-03-07 13:55:00,
2013-03-07 08:00:00,12.2,7.8,30.41,West,276,0.0,0.0,82,0.00,,,0.00,VWS V14.01,2013-03-07 14:00:00,
2013-03-07 08:05:00,12.7,8.5,30.41,West,276,0.0,0.0,83,0.00,,,0.00,VWS V14.01,2013-03-07 14:05:00,
2013-03-07 08:10:00,13.3,9.4,30.42,West,277,0.0,0.0,84,0.00,,,0.00,VWS V14.01,2013-03-07 14:10:00,
2013-03-07 08:15:00,13.9,10.2,30.42,West,276,0.0,1.0,85,0.00,,,0.00,VWS V14.01,2013-03-07 14:15:00,
2013-03-07 08:20:00,14.5,10.6,30.42,West,276,0.0,1.0,84,0.00,,,0.00,VWS V14.01,2013-03-07 14:20:00,
2013-03-07 08:25:00,15.1,11.1,30.42,West,276,0.0,1.0,84,0.00,,,0.00,VWS V14.01,2013-03-07 14:25:00,
2013-03-07 08:30:00,15.9,11.9,30.42,West,276,0.0,1.0,84,0.00,,,0.00,VWS V14.01,2013-03-07 14:30:00,
2013-03-07 08:35:00,16.6,12.6,30.43,West,277,0.0,0.0,84,0.00,,,0.00,VWS V14.01,2013-03-07 14:35:00,
2013-03-07 08:40:00,17.2,12.9,30.43,West,276,0.0,0.0,83,0.00,,,0.00,VWS V14.01,2013-03-07 14:40:00,
2013-03-07 08:45:00,17.7,13.1,30.43,West,277,0.0,0.0,82,0.00,,,0.00,VWS V14.01,2013-03-07 14:45:00,
2013-03-07 08:50:00,18.0,13.4,30.43,West,276,0.0,3.0,82,0.00,,,0.00,VWS V14.01,2013-03-07 14:50:00,
2013-03-07 08:55:00,18.3,13.7,30.43,West,276,0.0,4.0,82,0.00,,,0.00,VWS V14.01,2013-03-07 14:55:00,
2013-03-07 09:00:00,18.5,13.9,30.42,West,267,0.0,4.0,82,0.00,,,0.00,VWS V14.01,2013-03-07 15:00:00,
2013-03-07 09:05:00,18.8,14.2,30.42,SE,124,0.0,6.0,82,0.00,,,0.00,VWS V14.01,2013-03-07 15:05:00,
2013-03-07 09:10:00,19.2,14.6,30.43,ESE,109,0.0,6.0,82,0.00,,,0.00,VWS V14.01,2013-03-07 15:10:00,
2013-03-07 09:15:00,19.5,14.4,30.42,ESE,107,0.0,6.0,80,0.00,,,0.00,VWS V14.01,2013-03-07 15:15:00,
2013-03-07 09:20:00,19.7,14.5,30.43,ESE,102,2.0,6.0,80,0.00,,,0.00,VWS V14.01,2013-03-07 15:20:00,
2013-03-07 09:26:00,19.9,14.4,30.42,East,99,5.0,7.0,79,0.00,,,0.00,VWS V14.01,2013-03-07 15:26:00,
2013-03-07 09:31:00,20.1,14.4,30.43,East,89,3.0,5.0,78,0.00,,,0.00,VWS V14.01,2013-03-07 15:31:00,
2013-03-07 09:36:00,20.4,14.6,30.42,ESE,110,2.0,8.0,78,0.00,,,0.00,VWS V14.01,2013-03-07 15:36:00,
2013-03-07 09:41:00,20.5,14.4,30.43,SE,125,3.0,8.0,77,0.00,,,0.00,VWS V14.01,2013-03-07 15:41:00,
2013-03-07 09:46:00,20.8,14.7,30.42,East,98,5.0,10.0,77,0.00,,,0.00,VWS V14.01,2013-03-07 15:46:00,
2013-03-07 09:51:00,21.1,15.0,30.42,East,85,5.0,10.0,77,0.00,,,0.00,VWS V14.01,2013-03-07 15:51:00,
2013-03-07 09:56:00,21.5,15.1,30.42,East,91,6.0,10.0,76,0.00,,,0.00,VWS V14.01,2013-03-07 15:56:00,
2013-03-07 10:01:00,21.8,15.4,30.42,SE,126,3.0,9.0,76,0.00,,,0.00,VWS V14.01,2013-03-07 16:01:00,
2013-03-07 10:07:00,22.3,15.6,30.43,ESE,104,4.0,9.0,75,0.00,,,0.00,VWS V14.01,2013-03-07 16:07:00,
2013-03-07 10:12:00,22.5,15.8,30.42,ESE,120,3.0,9.0,75,0.00,,,0.00,VWS V14.01,2013-03-07 16:12:00,
2013-03-07 10:17:00,22.8,15.8,30.42,East,90,7.0,9.0,74,0.00,,,0.00,VWS V14.01,2013-03-07 16:17:00,
2013-03-07 10:22:00,23.3,15.9,30.42,ESE,110,0.0,9.0,73,0.00,,,0.00,VWS V14.01,2013-03-07 16:22:00,
2013-03-07 10:27:00,23.7,16.3,30.42,ESE,112,1.0,9.0,73,0.00,,,0.00,VWS V14.01,2013-03-07 16:27:00,
2013-03-07 10:32:00,24.1,16.4,30.42,East,100,3.0,7.0,72,0.00,,,0.00,VWS V14.01,2013-03-07 16:32:00,
2013-03-07 10:37:00,24.5,16.8,30.43,ESE,102,0.0,7.0,72,0.00,,,0.00,VWS V14.01,2013-03-07 16:37:00,
2013-03-07 10:42:00,24.8,16.8,30.43,East,95,0.0,7.0,71,0.00,,,0.00,VWS V14.01,2013-03-07 16:42:00,
2013-03-07 10:47:00,25.1,17.0,30.43,SSE,166,0.0,7.0,71,0.00,,,0.00,VWS V14.01,2013-03-07 16:47:00,
2013-03-07 10:52:00,25.4,17.0,30.42,ESE,117,2.0,7.0,70,0.00,,,0.00,VWS V14.01,2013-03-07 16:52:00,
2013-03-07 10:57:00,25.7,17.3,30.42,East,94,0.0,7.0,70,0.00,,,0.00,VWS V14.01,2013-03-07 16:57:00,
2013-03-07 11:02:00,26.0,17.2,30.42,ENE,78,1.0,8.0,69,0.00,,,0.00,VWS V14.01,2013-03-07 17:02:00,
2013-03-07 11:07:00,26.0,17.2,30.42,ESE,110,4.0,8.0,69,0.00,,,0.00,VWS V14.01,2013-03-07 17:07:00,
2013-03-07 11:12:00,26.4,17.6,30.42,East,96,1.0,8.0,69,0.00,,,0.00,VWS V14.01,2013-03-07 17:12:00,
2013-03-07 11:17:00,26.7,17.6,30.42,ESE,115,2.0,8.0,68,0.00,,,0.00,VWS V14.01,2013-03-07 17:17:00,
2013-03-07 11:22:00,26.8,17.7,30.42,East,100,0.0,8.0,68,0.00,,,0.00,VWS V14.01,2013-03-07 17:22:00,
2013-03-07 11:28:00,27.3,18.1,30.42,SE,126,0.0,8.0,68,0.00,,,0.00,VWS V14.01,2013-03-07 17:28:00,
2013-03-07 11:33:00,27.5,17.6,30.42,East,100,0.0,5.0,66,0.00,,,0.00,VWS V14.01,2013-03-07 17:33:00,
2013-03-07 11:38:00,27.5,17.3,30.41,South,182,5.0,8.0,65,0.00,,,0.00,VWS V14.01,2013-03-07 17:38:00,
2013-03-07 11:43:00,27.5,18.0,30.41,East,100,5.0,8.0,67,0.00,,,0.00,VWS V14.01,2013-03-07 17:43:00,
2013-03-07 11:48:00,27.3,17.1,30.41,SE,135,7.0,10.0,65,0.00,,,0.00,VWS V14.01,2013-03-07 17:48:00,
2013-03-07 11:53:00,27.1,16.9,30.41,North,359,0.0,10.0,65,0.00,,,0.00,VWS V14.01,2013-03-07 17:53:00,
2013-03-07 11:58:00,27.2,17.7,30.41,ENE,73,0.0,10.0,67,0.00,,,0.00,VWS V14.01,2013-03-07 17:58:00,
2013-03-07 12:03:00,27.6,17.7,30.41,ESE,104,0.0,8.0,66,0.00,,,0.00,VWS V14.01,2013-03-07 18:03:00,
2013-03-07 12:09:00,28.0,18.1,30.41,East,100,0.0,8.0,66,0.00,,,0.00,VWS V14.01,2013-03-07 18:09:00,
2013-03-07 12:14:00,27.8,17.6,30.41,SE,131,0.0,8.0,65,0.00,,,0.00,VWS V14.01,2013-03-07 18:14:00,
2013-03-07 12:19:00,27.9,17.7,30.41,East,80,6.0,8.0,65,0.00,,,0.00,VWS V14.01,2013-03-07 18:19:00,
2013-03-07 12:24:00,28.0,18.1,30.41,ESE,110,2.0,8.0,66,0.00,,,0.00,VWS V14.01,2013-03-07 18:24:00,
2013-03-07 12:29:00,28.3,18.4,30.41,East,100,9.0,9.0,66,0.00,,,0.00,VWS V14.01,2013-03-07 18:29:00,
2013-03-07 12:34:00,28.4,18.1,30.41,ESE,110,3.0,11.0,65,0.00,,,0.00,VWS V14.01,2013-03-07 18:34:00,
2013-03-07 12:39:00,28.5,18.2,30.41,East,90,2.0,11.0,65,0.00,,,0.00,VWS V14.01,2013-03-07 18:39:00,
2013-03-07 12:45:00,28.7,18.1,30.41,ESE,123,3.0,11.0,64,0.00,,,0.00,VWS V14.01,2013-03-07 18:45:00,
2013-03-07 12:50:00,28.7,18.4,30.40,ESE,114,7.0,11.0,65,0.00,,,0.00,VWS V14.01,2013-03-07 18:50:00,
2013-03-07 12:55:00,29.0,18.7,30.40,ESE,114,3.0,11.0,65,0.00,,,0.00,VWS V14.01,2013-03-07 18:55:00,
2013-03-07 13:00:00,29.2,18.9,30.40,SE,125,6.0,11.0,65,0.00,,,0.00,VWS V14.01,2013-03-07 19:00:00,
2013-03-07 13:05:00,29.0,18.4,30.40,East,88,8.0,11.0,64,0.00,,,0.00,VWS V14.01,2013-03-07 19:05:00,
2013-03-07 13:10:00,28.8,18.2,30.40,East,85,3.0,11.0,64,0.00,,,0.00,VWS V14.01,2013-03-07 19:10:00,
2013-03-07 13:15:00,28.6,18.0,30.40,East,97,7.0,11.0,64,0.00,,,0.00,VWS V14.01,2013-03-07 19:15:00,
2013-03-07 13:20:00,28.4,18.1,30.39,East,89,7.0,11.0,65,0.00,,,0.00,VWS V14.01,2013-03-07 19:20:00,
2013-03-07 13:25:00,28.4,18.1,30.39,SE,133,9.0,11.0,65,0.00,,,0.00,VWS V14.01,2013-03-07 19:25:00,
2013-03-07 13:30:00,28.3,18.1,30.39,ESE,112,9.0,11.0,65,0.00,,,0.00,VWS V14.01,2013-03-07 19:30:00,
2013-03-07 13:36:00,28.2,18.0,30.39,East,93,5.0,10.0,65,0.00,,,0.00,VWS V14.01,2013-03-07 19:36:00,
2013-03-07 13:41:00,28.2,18.0,30.39,South,181,8.0,13.0,65,0.00,,,0.00,VWS V14.01,2013-03-07 19:41:00,
2013-03-07 13:46:00,28.1,17.9,30.38,East,95,0.0,13.0,65,0.00,,,0.00,VWS V14.01,2013-03-07 19:46:00,
2013-03-07 13:51:00,28.2,18.0,30.38,SE,128,4.0,13.0,65,0.00,,,0.00,VWS V14.01,2013-03-07 19:51:00,
2013-03-07 13:56:00,28.4,18.1,30.38,ESE,110,3.0,13.0,65,0.00,,,0.00,VWS V14.01,2013-03-07 19:56:00,
2013-03-07 14:01:00,28.8,18.2,30.38,East,79,3.0,7.0,64,0.00,,,0.00,VWS V14.01,2013-03-07 20:01:00,
2013-03-07 14:06:00,29.0,18.4,30.38,NE,34,0.0,7.0,64,0.00,,,0.00,VWS V14.01,2013-03-07 20:06:00,
2013-03-07 14:11:00,29.4,18.7,30.38,East,95,0.0,7.0,64,0.00,,,0.00,VWS V14.01,2013-03-07 20:11:00,
2013-03-07 14:17:00,29.6,18.6,30.37,North,359,1.0,9.0,63,0.00,,,0.00,VWS V14.01,2013-03-07 20:17:00,
2013-03-07 14:22:00,29.4,18.7,30.37,East,93,3.0,9.0,64,0.00,,,0.00,VWS V14.01,2013-03-07 20:22:00,
2013-03-07 14:27:00,29.6,19.3,30.38,ESE,111,4.0,9.0,65,0.00,,,0.00,VWS V14.01,2013-03-07 20:27:00,
2013-03-07 14:32:00,29.8,18.8,30.37,ESE,116,9.0,9.0,63,0.00,,,0.00,VWS V14.01,2013-03-07 20:32:00,
2013-03-07 14:37:00,29.7,18.7,30.37,East,96,0.0,9.0,63,0.00,,,0.00,VWS V14.01,2013-03-07 20:37:00,
2013-03-07 14:42:00,29.7,19.0,30.37,East,83,2.0,11.0,64,0.00,,,0.00,VWS V14.01,2013-03-07 20:42:00,
2013-03-07 14:47:00,29.7,18.7,30.37,ESE,106,0.0,11.0,63,0.00,,,0.00,VWS V14.01,2013-03-07 20:47:00,
2013-03-07 14:52:00,29.7,19.0,30.37,East,96,3.0,11.0,64,0.00,,,0.00,VWS V14.01,2013-03-07 20:52:00,
2013-03-07 14:57:00,29.9,19.6,30.37,SE,141,7.0,11.0,65,0.00,,,0.00,VWS V14.01,2013-03-07 20:57:00,
2013-03-07 15:02:00,30.0,19.7,30.36,ESE,112,2.0,6.0,65,0.00,,,0.00,VWS V14.01,2013-03-07 21:02:00,
2013-03-07 15:07:00,30.2,19.9,30.36,SE,139,7.0,8.0,65,0.00,,,0.00,VWS V14.01,2013-03-07 21:07:00,
2013-03-07 15:13:00,30.4,20.4,30.36,ESE,102,4.0,9.0,66,0.00,,,0.00,VWS V14.01,2013-03-07 21:13:00,
2013-03-07 15:18:00,30.2,19.5,30.36,East,86,9.0,10.0,64,0.00,,,0.00,VWS V14.01,2013-03-07 21:18:00,
2013-03-07 15:23:00,29.9,19.9,30.36,SE,136,6.0,10.0,66,0.00,,,0.00,VWS V14.01,2013-03-07 21:23:00,
2013-03-07 15:28:00,30.1,20.1,30.36,ESE,109,4.0,10.0,66,0.00,,,0.00,VWS V14.01,2013-03-07 21:28:00,
2013-03-07 15:33:00,30.1,20.1,30.36,East,100,8.0,10.0,66,0.00,,,0.00,VWS V14.01,2013-03-07 21:33:00,
2013-03-07 15:38:00,29.9,19.6,30.36,ESE,108,1.0,10.0,65,0.00,,,0.00,VWS V14.01,2013-03-07 21:38:00,
2013-03-07 15:43:00,29.9,19.9,30.36,SE,129,5.0,10.0,66,0.00,,,0.00,VWS V14.01,2013-03-07 21:43:00,
2013-03-07 15:48:00,29.9,19.6,30.36,East,87,5.0,11.0,65,0.00,,,0.00,VWS V14.01,2013-03-07 21:48:00,
2013-03-07 15:54:00,29.7,19.8,30.36,ENE,72,5.0,11.0,66,0.00,,,0.00,VWS V14.01,2013-03-07 21:54:00,
2013-03-07 15:59:00,29.7,19.8,30.36,East,79,9.0,11.0,66,0.00,,,0.00,VWS V14.01,2013-03-07 21:59:00,
2013-03-07 16:04:00,29.5,19.6,30.36,ESE,118,4.0,8.0,66,0.00,,,0.00,VWS V14.01,2013-03-07 22:04:00,
2013-03-07 16:09:00,29.5,19.6,30.35,ESE,104,9.0,10.0,66,0.00,,,0.00,VWS V14.01,2013-03-07 22:09:00,
2013-03-07 16:14:00,29.5,19.9,30.35,ENE,75,5.0,13.0,67,0.00,,,0.00,VWS V14.01,2013-03-07 22:14:00,
2013-03-07 16:19:00,29.4,19.5,30.35,East,84,2.0,13.0,66,0.00,,,0.00,VWS V14.01,2013-03-07 22:19:00,
2013-03-07 16:25:00,29.3,19.7,30.35,East,91,6.0,13.0,67,0.00,,,0.00,VWS V14.01,2013-03-07 22:25:00,
2013-03-07 16:30:00,29.3,19.7,30.35,ESE,109,0.0,13.0,67,0.00,,,0.00,VWS V14.01,2013-03-07 22:30:00,
2013-03-07 16:35:00,29.3,20.1,30.35,East,89,7.0,8.0,68,0.00,,,0.00,VWS V14.01,2013-03-07 22:35:00,
2013-03-07 16:40:00,29.3,20.1,30.35,ESE,110,7.0,8.0,68,0.00,,,0.00,VWS V14.01,2013-03-07 22:40:00,
2013-03-07 16:45:00,29.3,19.7,30.35,East,88,6.0,12.0,67,0.00,,,0.00,VWS V14.01,2013-03-07 22:45:00,
2013-03-07 16:50:00,29.2,19.6,30.35,SE,127,5.0,12.0,67,0.00,,,0.00,VWS V14.01,2013-03-07 22:50:00,
2013-03-07 16:55:00,29.2,19.6,30.35,ESE,106,7.0,12.0,67,0.00,,,0.00,VWS V14.01,2013-03-07 22:55:00,
2013-03-07 17:00:00,29.2,20.0,30.35,East,92,9.0,12.0,68,0.00,,,0.00,VWS V14.01,2013-03-07 23:00:00,
2013-03-07 17:05:00,29.1,19.5,30.35,East,85,6.0,8.0,67,0.00,,,0.00,VWS V14.01,2013-03-07 23:05:00,
2013-03-07 17:10:00,28.9,19.7,30.35,ESE,120,3.0,10.0,68,0.00,,,0.00,VWS V14.01,2013-03-07 23:10:00,
2013-03-07 17:15:00,28.9,19.3,30.35,SE,129,5.0,10.0,67,0.00,,,0.00,VWS V14.01,2013-03-07 23:15:00,
2013-03-07 17:20:00,28.8,19.6,30.34,ENE,77,3.0,10.0,68,0.00,,,0.00,VWS V14.01,2013-03-07 23:20:00,
2013-03-07 17:25:00,28.7,19.5,30.35,East,87,2.0,10.0,68,0.00,,,0.00,VWS V14.01,2013-03-07 23:25:00,
2013-03-07 17:30:00,28.5,19.3,30.34,ESE,113,3.0,10.0,68,0.00,,,0.00,VWS V14.01,2013-03-07 23:30:00,
2013-03-07 17:35:00,28.4,19.5,30.34,East,93,3.0,7.0,69,0.00,,,0.00,VWS V14.01,2013-03-07 23:35:00,
2013-03-07 17:40:00,28.3,19.5,30.35,East,93,2.0,7.0,69,0.00,,,0.00,VWS V14.01,2013-03-07 23:40:00,
2013-03-07 17:45:00,28.1,19.3,30.35,East,79,5.0,8.0,69,0.00,,,0.00,VWS V14.01,2013-03-07 23:45:00,
2013-03-07 17:50:00,28.0,19.2,30.35,East,91,5.0,8.0,69,0.00,,,0.00,VWS V14.01,2013-03-07 23:50:00,
2013-03-07 17:55:00,27.8,19.0,30.34,East,81,3.0,9.0,69,0.00,,,0.00,VWS V14.01,2013-03-07 23:55:00,
2013-03-07 18:00:00,27.6,18.8,30.34,SE,132,6.0,9.0,69,0.00,,,0.00,VWS V14.01,2013-03-08 00:00:00,
2013-03-07 18:05:00,27.4,18.9,30.34,ESE,109,3.0,8.0,70,0.00,,,0.00,VWS V14.01,2013-03-08 00:05:00,
2013-03-07 18:11:00,27.3,18.8,30.34,ESE,112,5.0,8.0,70,0.00,,,0.00,VWS V14.01,2013-03-08 00:11:00,
2013-03-07 18:16:00,27.1,18.6,30.34,East,100,3.0,8.0,70,0.00,,,0.00,VWS V14.01,2013-03-08 00:16:00,
2013-03-07 18:21:00,27.0,18.5,30.34,ESE,112,3.0,8.0,70,0.00,,,0.00,VWS V14.01,2013-03-08 00:21:00,
2013-03-07 18:26:00,26.9,18.4,30.34,East,81,2.0,8.0,70,0.00,,,0.00,VWS V14.01,2013-03-08 00:26:00,
2013-03-07 18:31:00,26.8,18.7,30.34,ESE,117,3.0,3.0,71,0.00,,,0.00,VWS V14.01,2013-03-08 00:31:00,
2013-03-07 18:36:00,26.7,18.6,30.34,East,99,0.0,5.0,71,0.00,,,0.00,VWS V14.01,2013-03-08 00:36:00,
2013-03-07 18:41:00,26.6,18.5,30.34,ESE,104,2.0,7.0,71,0.00,,,0.00,VWS V14.01,2013-03-08 00:41:00,
2013-03-07 18:46:00,26.6,18.5,30.34,ESE,106,2.0,7.0,71,0.00,,,0.00,VWS V14.01,2013-03-08 00:46:00,
2013-03-07 18:51:00,26.5,18.4,30.34,ESE,122,4.0,7.0,71,0.00,,,0.00,VWS V14.01,2013-03-08 00:51:00,
2013-03-07 18:56:00,26.5,18.4,30.34,SE,125,1.0,7.0,71,0.00,,,0.00,VWS V14.01,2013-03-08 00:56:00,
2013-03-07 19:01:00,26.4,18.3,30.34,SE,134,5.0,6.0,71,0.00,,,0.00,VWS V14.01,2013-03-08 01:01:00,
2013-03-07 19:07:00,26.5,18.0,30.34,East,100,2.0,11.0,70,0.00,,,0.00,VWS V14.01,2013-03-08 01:07:00,
2013-03-07 19:12:00,26.5,18.4,30.34,ESE,117,3.0,11.0,71,0.00,,,0.00,VWS V14.01,2013-03-08 01:12:00,
2013-03-07 19:17:00,26.4,18.0,30.34,East,89,10.0,11.0,70,0.00,,,0.00,VWS V14.01,2013-03-08 01:17:00,
2013-03-07 19:22:00,26.6,18.1,30.34,East,89,5.0,11.0,70,0.00,,,0.00,VWS V14.01,2013-03-08 01:22:00,
2013-03-07 19:27:00,26.5,18.0,30.34,ESE,106,4.0,11.0,70,0.00,,,0.00,VWS V14.01,2013-03-08 01:27:00,
2013-03-07 19:32:00,26.5,18.0,30.34,East,86,3.0,6.0,70,0.00,,,0.00,VWS V14.01,2013-03-08 01:32:00,
2013-03-07 19:37:00,26.4,18.0,30.33,East,100,3.0,8.0,70,0.00,,,0.00,VWS V14.01,2013-03-08 01:37:00,
2013-03-07 19:42:00,26.3,17.9,30.34,ESE,106,3.0,10.0,70,0.00,,,0.00,VWS V14.01,2013-03-08 01:42:00,
2013-03-07 19:47:00,26.2,18.1,30.33,East,100,2.0,10.0,71,0.00,,,0.00,VWS V14.01,2013-03-08 01:47:00,
2013-03-07 19:52:00,26.0,17.9,30.33,East,91,2.0,10.0,71,0.00,,,0.00,VWS V14.01,2013-03-08 01:52:00,
2013-03-07 19:57:00,25.9,17.8,30.33,ESE,121,2.0,10.0,71,0.00,,,0.00,VWS V14.01,2013-03-08 01:57:00,
2013-03-07 20:02:00,25.7,17.6,30.33,SE,125,4.0,4.0,71,0.00,,,0.00,VWS V14.01,2013-03-08 02:02:00,
2013-03-07 20:07:00,25.6,17.8,30.33,East,90,2.0,7.0,72,0.00,,,0.00,VWS V14.01,2013-03-08 02:07:00,
2013-03-07 20:12:00,25.4,17.6,30.33,East,97,1.0,7.0,72,0.00,,,0.00,VWS V14.01,2013-03-08 02:12:00,
2013-03-07 20:17:00,25.3,17.5,30.33,East,87,3.0,7.0,72,0.00,,,0.00,VWS V14.01,2013-03-08 02:17:00,
2013-03-07 20:22:00,25.3,17.5,30.33,ESE,122,2.0,7.0,72,0.00,,,0.00,VWS V14.01,2013-03-08 02:22:00,
2013-03-07 20:27:00,25.3,17.5,30.33,ESE,114,2.0,7.0,72,0.00,,,0.00,VWS V14.01,2013-03-08 02:27:00,
2013-03-07 20:33:00,25.3,17.5,30.33,ESE,104,4.0,6.0,72,0.00,,,0.00,VWS V14.01,2013-03-08 02:33:00,
2013-03-07 20:38:00,25.3,17.5,30.33,ESE,104,2.0,6.0,72,0.00,,,0.00,VWS V14.01,2013-03-08 02:38:00,
2013-03-07 20:43:00,25.3,17.5,30.33,ESE,119,2.0,6.0,72,0.00,,,0.00,VWS V14.01,2013-03-08 02:43:00,
2013-03-07 20:48:00,25.2,17.5,30.33,East,81,2.0,6.0,72,0.00,,,0.00,VWS V14.01,2013-03-08 02:48:00,
2013-03-07 20:53:00,25.2,17.5,30.34,ESE,108,0.0,6.0,72,0.00,,,0.00,VWS V14.01,2013-03-08 02:53:00,
2013-03-07 20:58:00,25.1,17.4,30.33,ESE,110,2.0,6.0,72,0.00,,,0.00,VWS V14.01,2013-03-08 02:58:00,
2013-03-07 21:03:00,25.1,17.7,30.33,ESE,102,2.0,5.0,73,0.00,,,0.00,VWS V14.01,2013-03-08 03:03:00,
2013-03-07 21:08:00,25.1,17.7,30.33,ESE,102,0.0,5.0,73,0.00,,,0.00,VWS V14.01,2013-03-08 03:08:00,
2013-03-07 21:13:00,25.0,17.6,30.33,East,97,1.0,5.0,73,0.00,,,0.00,VWS V14.01,2013-03-08 03:13:00,
2013-03-07 21:18:00,25.1,17.7,30.33,ESE,112,2.0,5.0,73,0.00,,,0.00,VWS V14.01,2013-03-08 03:18:00,
2013-03-07 21:23:00,25.1,17.4,30.34,ESE,105,3.0,5.0,72,0.00,,,0.00,VWS V14.01,2013-03-08 03:23:00,
2013-03-07 21:28:00,25.2,17.5,30.34,ESE,111,0.0,5.0,72,0.00,,,0.00,VWS V14.01,2013-03-08 03:28:00,
2013-03-07 21:33:00,25.2,17.5,30.34,ESE,110,2.0,2.0,72,0.00,,,0.00,VWS V14.01,2013-03-08 03:33:00,
2013-03-07 21:39:00,25.2,17.5,30.34,ESE,105,3.0,4.0,72,0.00,,,0.00,VWS V14.01,2013-03-08 03:39:00,
2013-03-07 21:44:00,25.2,17.5,30.34,ESE,102,0.0,4.0,72,0.00,,,0.00,VWS V14.01,2013-03-08 03:44:00,
2013-03-07 21:49:00,25.2,17.5,30.34,ESE,112,0.0,6.0,72,0.00,,,0.00,VWS V14.01,2013-03-08 03:49:00,
2013-03-07 21:54:00,25.3,17.5,30.34,ESE,104,0.0,6.0,72,0.00,,,0.00,VWS V14.01,2013-03-08 03:54:00,
2013-03-07 21:59:00,25.4,17.6,30.34,ESE,115,0.0,8.0,72,0.00,,,0.00,VWS V14.01,2013-03-08 03:59:00,
2013-03-07 22:04:00,25.5,17.8,30.34,ESE,112,2.0,8.0,72,0.00,,,0.00,VWS V14.01,2013-03-08 04:04:00,
2013-03-07 22:09:00,25.5,17.8,30.35,ESE,120,4.0,9.0,72,0.00,,,0.00,VWS V14.01,2013-03-08 04:09:00,
2013-03-07 22:14:00,25.5,17.8,30.35,ESE,120,1.0,10.0,72,0.00,,,0.00,VWS V14.01,2013-03-08 04:14:00,
2013-03-07 22:20:00,25.4,17.6,30.35,ESE,118,3.0,10.0,72,0.00,,,0.00,VWS V14.01,2013-03-08 04:20:00,
2013-03-07 22:25:00,25.3,17.5,30.35,East,97,2.0,10.0,72,0.00,,,0.00,VWS V14.01,2013-03-08 04:25:00,
2013-03-07 22:30:00,25.2,17.5,30.35,ESE,104,2.0,10.0,72,0.00,,,0.00,VWS V14.01,2013-03-08 04:30:00,
2013-03-07 22:35:00,25.1,17.4,30.36,SE,125,0.0,3.0,72,0.00,,,0.00,VWS V14.01,2013-03-08 04:35:00,
2013-03-07 22:40:00,25.0,17.6,30.35,East,92,2.0,4.0,73,0.00,,,0.00,VWS V14.01,2013-03-08 04:40:00,
2013-03-07 22:45:00,24.9,17.5,30.35,SE,131,0.0,7.0,73,0.00,,,0.00,VWS V14.01,2013-03-08 04:45:00,
2013-03-07 22:50:00,24.9,17.5,30.35,ESE,119,2.0,7.0,73,0.00,,,0.00,VWS V14.01,2013-03-08 04:50:00,
2013-03-07 22:56:00,24.8,17.4,30.36,SE,139,0.0,7.0,73,0.00,,,0.00,VWS V14.01,2013-03-08 04:56:00,
2013-03-07 23:00:00,24.7,17.6,30.36,ESE,114,0.0,7.0,74,0.00,,,0.00,VWS V14.01,2013-03-08 05:00:00,
2013-03-07 23:03:00,24.6,17.5,30.36,ESE,110,0.0,2.0,74,0.00,,,0.00,VWS V14.01,2013-03-08 05:03:00,
2013-03-07 23:08:00,24.6,17.5,30.36,ESE,112,0.0,3.0,74,0.00,,,0.00,VWS V14.01,2013-03-08 05:08:00,
2013-03-07 23:13:00,24.5,17.4,30.36,ESE,112,0.0,3.0,74,0.00,,,0.00,VWS V14.01,2013-03-08 05:13:00,
2013-03-07 23:18:00,24.4,17.3,30.37,ESE,112,0.0,3.0,74,0.00,,,0.00,VWS V14.01,2013-03-08 05:18:00,
2013-03-07 23:23:00,24.3,17.2,30.37,ESE,112,0.0,3.0,74,0.00,,,0.00,VWS V14.01,2013-03-08 05:23:00,
2013-03-07 23:28:00,24.2,17.1,30.37,ESE,112,0.0,3.0,74,0.00,,,0.00,VWS V14.01,2013-03-08 05:28:00,
2013-03-07 23:33:00,24.0,17.2,30.37,ESE,112,0.0,0.0,75,0.00,,,0.00,VWS V14.01,2013-03-08 05:33:00,
2013-03-07 23:38:00,23.9,17.1,30.37,ESE,112,0.0,0.0,75,0.00,,,0.00,VWS V14.01,2013-03-08 05:38:00,
2013-03-07 23:44:00,23.8,17.0,30.37,ESE,112,0.0,0.0,75,0.00,,,0.00,VWS V14.01,2013-03-08 05:44:00,
2013-03-07 23:49:00,23.6,17.2,30.36,ESE,112,0.0,1.0,76,0.00,,,0.00,VWS V14.01,2013-03-08 05:49:00,
2013-03-07 23:54:00,23.5,17.1,30.36,East,101,3.0,5.0,76,0.00,,,0.00,VWS V14.01,2013-03-08 05:54:00,
2013-03-07 23:59:00,23.4,17.3,30.36,East,101,4.0,5.0,77,0.00,,,0.00,VWS V14.01,2013-03-08 05:59:00,